Regional Weather Roundup
Issued by NWS Albany, NY

Home | Current Version | Previous Version | Graphics & Text | Print | Product List | Glossary Off
Versions: 1 2 3 4 5 6 7 8 9 10 11 12 13 14 15 16 17 18 19 20 21 22 23 24 25 26 27 28 29 30 31 32 33 34 35 36 37 38 39 40 41 42 43 44 45 46 47 48 49 50

509
ASUS41 KALY 272110
RWRALY

NEW YORK STATE HOURLY WEATHER ROUNDUP
NATIONAL WEATHER SERVICE ALBANY NY
500 PM EDT TUE SEP 27 2016

NOTE: "FAIR" INDICATES FEW OR NO CLOUDS BELOW 12,000 FEET WITH NO
SIGNIFICANT WEATHER AND/OR NO OBSTRUCTIONS TO VISIBILITY.

NYZ032-033-038>043-046>054-057>066-NYZ062>081-082-084-272200-
EAST


CITY           SKY/WX    TMP DP  RH WIND       PRES   REMARKS
ALBANY         MOSUNNY   71  49  45 E5        29.87S
GLENS FALLS    SUNNY     71  49  45 S8        29.87S
POUGHKEEPSIE   MOSUNNY   72  50  45 S7        29.87S
NEWBURGH       MOSUNNY   72  52  49 SW8       29.89F
MONTGOMERY     SUNNY     73  48  41 SW8       29.87S
WHITE PLAINS   MOSUNNY   72  52  49 VRB6      29.88S
ISLIP          CLOUDY    71  61  70 SW7       29.89S
NEW YORK CITY  PTSUNNY   76  50  40 SW8       29.87S
CENTRAL PARK   MOSUNNY   73  52  47 VRB5      29.90S
$$

NYZ005>009-017-018-044>046-055-056-272200-
CENTRAL


CITY           SKY/WX    TMP DP  RH WIND       PRES   REMARKS
FULTON         MOSUNNY   70  40  33 W6        29.84S
SYRACUSE       PTSUNNY   71  34  25 W13       29.84R
ROME           SUNNY     70  41  34 W7        29.86R
ELMIRA         SUNNY     73  28  18 W12       29.83S
BINGHAMTON     MOSUNNY   66  42  41 SW9       29.88R
MONTICELLO     SUNNY     68  48  49 S6        29.91S
$$

NYZ026>034-041>043-087-272200-
NORTH


CITY           SKY/WX    TMP DP  RH WIND       PRES   REMARKS
WATERTOWN      SUNNY     68  45  43 SW5       29.85R
FORT DRUM      NOT AVBL
OGDENSBURG     FAIR      71  45  38 SW10      29.85R
MASSENA        CLOUDY    68  47  46 SE3       29.86R
SARANAC LAKE   PTSUNNY   66  39  37 SW6       29.87R
PLATTSBURGH    MOSUNNY   67  49  52 SE6       29.85S
$$

NYZ001>004-010>016-019>021-085-272200-
WEST


CITY           SKY/WX    TMP DP  RH WIND       PRES   REMARKS
NIAGARA FALLS  MOSUNNY   71  39  31 SW21G26   29.78S
BUFFALO        MOSUNNY   69  41  36 SW22      29.79S
DUNKIRK        PTSUNNY   70  40  33 S17       29.80S
JAMESTOWN      MOSUNNY   64  37  36 SW13G21   29.84S
WELLSVILLE     MOSUNNY   64  34  32 S8        29.89S
ROCHESTER      MOSUNNY   71  38  29 SW14      29.82S
PENN YAN       SUNNY     71  34  25 W7        29.86S
$$

             KEY
       WCI = WIND CHILL INDEX
       VSB = VISIBILITY
       HX  = HEAT INDEX
$$




USA.gov is the U.S. government's official web portal to all federal, state and local government web resources and services.